Location: Dos Palmas
(32.4468°N, 116.8732°W)
Time: 00:33:22
(UTC+00:00)

Cosmos 1805 Rocket - Pass Details

Date: 20 June 2021
Orbit: 606 x 630 km, 82.5° (Epoch: 01 August)

Event Time Altitude Azimuth Distance (km) Brightness Sun altitude
Exits shadow 11:46:56 - 195° (SSW) 2,164 5.9 -10.4°
Reaches altitude 10° 11:47:26 10° 196° (SSW) 1,962 5.7 -10.3°
Maximum altitude 11:51:44 62° 277° (W) 694 3.6 -9.6°
Drops below altitude 10° 11:56:06 10° 359° (N) 1,990 6.7 -8.8°
Sets 11:58:22 0° 3° (N) 2,904 7.6 -8.4°
